DK8PN Weather Reports


time (UTC)temp
C
wind
direction
speed
KPH
gust
KPH
rain 1hr
cm
rain 24hr
cm
rain mn
cm
humidity
%
barometer
mb
20260905203045 14 288 0.0 0.0 0.00 0.71 0.71 81 1022.7
20260905201543 14 288 0.0 0.0 0.00 0.71 0.71 79 1022.7
20260905200055 15 288 0.0 0.0 0.00 0.71 0.71 74 1022.4
20260905194540 15 288 0.0 0.0 0.00 0.71 0.71 73 1022.2
20260905193038 16 288 0.0 0.0 0.00 0.71 0.71 71 1022.1
20260905191541 16 288 0.0 0.0 0.00 0.71 0.71 71 1021.9
20260905190035 17 288 0.0 0.0 0.00 0.71 0.71 65 1021.8
20260905184535 17 288 0.0 0.0 0.00 0.71 0.71 66 1021.6
20260905183029 18 288 0.0 0.0 0.00 0.71 0.71 60 1021.3
20260905181527 20 288 0.0 0.0 0.00 0.71 0.71 50 1021.1
20260905180024 21 288 0.0 1.6 0.00 0.71 0.71 49 1021.0
20260905174523 21 289 0.0 1.6 0.00 0.71 0.71 46 1020.9
20260905173023 22 271 0.0 12.9 0.00 0.71 0.71 45 1020.6
20260905171536 22 262 3.2 16.1 0.00 0.71 0.71 44 1020.6
20260905170027 23 299 0.0 17.7 0.00 0.71 0.71 45 1020.4
20260905164518 23 310 3.2 16.1 0.00 0.71 0.71 44 1020.4
20260905163019 23 251 3.2 16.1 0.00 0.71 0.71 44 1020.2
20260905161520 23 261 1.6 22.5 0.00 0.71 0.71 42 1020.1
20260905160027 23 314 8.0 20.9 0.00 0.71 0.71 45 1019.9
20260905154525 23 250 8.0 20.9 0.00 0.71 0.71 45 1019.9
20260905153016 23 312 6.4 24.1 0.00 0.71 0.71 45 1020.0
20260905151515 23 190 0.0 22.5 0.00 0.71 0.71 48 1019.8
20260905150011 23 267 8.0 24.1 0.00 0.71 0.71 46 1019.8
20260905144510 23 303 9.7 27.4 0.00 0.71 0.71 46 1019.8
20260905143009 23 263 12.9 24.1 0.00 0.71 0.71 45 1019.8
20260905141508 23 259 8.0 20.9 0.00 0.71 0.71 48 1019.7
20260905140007 23 284 12.9 29.0 0.00 0.71 0.71 49 1019.7
20260905134509 23 292 16.1 30.6 0.00 0.71 0.71 48 1019.7
20260905133006 23 272 6.4 24.1 0.00 0.71 0.71 50 1019.7
20260905131505 23 304 11.3 22.5 0.00 0.71 0.71 51 1019.8
20260905130001 23 277 11.3 22.5 0.00 0.71 0.71 53 1019.9
20260905124500 23 290 4.8 20.9 0.00 0.71 0.71 56 1020.0
20260905123000 22 266 8.0 27.4 0.00 0.71 0.71 57 1019.9
20260905121600 22 267 9.7 22.5 0.00 0.71 0.71 58 1019.8
20260905120100 23 294 4.8 25.7 0.00 0.71 0.71 59 1020.0
20260905114610 22 275 4.8 38.6 0.00 0.71 0.71 59 1020.1
20260905113055 22 275 11.3 24.1 0.00 0.71 0.71 57 1019.9
20260905111606 22 261 9.7 27.4 0.00 0.71 0.71 60 1020.0
20260905110055 21 255 12.9 38.6 0.00 0.71 0.71 61 1020.0
20260905104552 21 303 11.3 25.7 0.00 0.71 0.71 63 1019.9
20260905103051 20 229 12.9 20.9 0.00 0.71 0.71 69 1019.9
20260905101548 20 302 3.2 17.7 0.00 0.71 0.71 72 1019.9
20260905100049 20 292 9.7 27.4 0.00 0.71 0.71 71 1019.9
20260905094559 20 248 4.8 17.7 0.00 0.71 0.71 75 1019.9
20260905093045 20 288 9.7 25.7 0.00 0.71 0.71 76 1019.8
20260905091546 19 273 6.4 19.3 0.00 0.71 0.71 81 1019.7
20260905090039 18 308 4.8 17.7 0.00 0.71 0.71 84 1019.6
20260905084543 18 271 4.8 16.1 0.00 0.71 0.71 84 1019.4
20260905083036 18 257 1.6 22.5 0.00 0.71 0.71 85 1019.1
20260905081535 18 271 1.6 19.3 0.00 0.71 0.71 85 1019.1
20260905080048 18 263 4.8 19.3 0.00 0.71 0.71 84 1018.9
20260905074533 18 259 1.6 9.7 0.00 0.71 0.71 83 1018.8
20260905073040 17 267 0.0 3.2 0.00 0.71 0.71 86 1018.9
20260905071528 17 191 0.0 0.0 0.00 0.71 0.71 87 1018.7
20260905070025 16 355 0.0 0.0 0.00 0.71 0.71 89 1018.5
20260905064519 16 355 0.0 0.0 0.00 0.71 0.71 90 1018.6
20260905063018 15 355 0.0 0.0 0.00 0.71 0.71 91 1018.5
20260905061515 15 355 0.0 0.0 0.00 0.71 0.71 91 1018.4
20260905060014 15 355 0.0 0.0 0.00 0.71 0.71 92 1018.2
20260905054510 15 355 0.0 0.0 0.00 0.71 0.71 92 1017.9
20260905053007 15 355 0.0 0.0 0.00 0.71 0.71 92 1018.0
20260905051505 14 355 0.0 0.0 0.00 0.71 0.71 91 1017.7
20260905050000 14 355 0.0 0.0 0.00 0.71 0.71 91 1017.2
20260905044600 14 355 0.0 0.0 0.00 0.71 0.71 91 1017.1
20260905043119 15 355 0.0 0.0 0.03 0.71 0.71 91 1016.9
20260905041557 14 355 0.0 0.0 0.05 0.71 0.71 91 1016.7
20260905040117 15 355 0.0 0.0 0.10 0.71 0.71 91 1016.6
20260905034557 15 350 0.0 0.0 0.20 0.71 0.71 90 1016.8
20260905033055 15 349 0.0 0.0 0.23 0.69 0.69 89 1016.8
20260905031552 15 348 0.0 0.0 0.30 0.64 0.64 89 1016.9
20260905030051 15 348 0.0 0.0 0.38 0.61 0.61 88 1017.0
20260905024547 15 347 0.0 0.0 0.51 0.51 0.51 87 1017.1
20260905023050 16 347 0.0 14.5 0.43 0.43 0.43 87 1017.1
20260905021547 16 19 1.6 16.1 0.33 0.33 0.33 89 1016.8
20260905020037 17 42 6.4 19.3 0.23 0.23 0.23 87 1016.3
20260905014533 17 330 0.0 14.5 0.00 0.00 0.00 84 1016.1
20260905013028 18 325 9.7 29.0 0.00 0.00 0.00 79 1015.8
20260905011523 20 300 3.2 14.5 0.00 0.00 0.00 75 1015.5
20260905010021 20 327 4.8 14.5 0.00 0.00 0.00 72 1015.2
20260905004519 20 317 4.8 17.7 0.00 0.00 0.00 70 1015.0
20260905003019 20 317 1.6 9.7 0.00 0.00 0.00 70 1014.7
20260905001512 21 323 3.2 16.1 0.00 0.00 0.00 70 1014.7
20260905000025 21 327 1.6 16.1 0.00 0.00 0.00 70 1014.6
20260904234505 21 317 1.6 17.7 0.00 0.00 0.00 70 1014.4
20260904233002 22 348 3.2 20.9 0.00 0.00 0.00 68 1014.1
20260904231559 23 315 1.6 22.5 0.00 0.00 0.00 64 1013.6
20260904230105 23 288 0.0 17.7 0.00 0.00 0.00 62 1013.5
20260904224556 23 273 1.6 17.7 0.00 0.00 0.00 60 1013.4
20260904223055 23 267 1.6 12.9 0.00 0.00 0.00 61 1013.3
20260904221551 23 267 1.6 11.3 0.00 0.00 0.00 61 1012.9
20260904220107 23 267 0.0 1.6 0.00 0.00 0.00 61 1012.7
20260904214545 23 267 0.0 0.0 0.00 0.00 0.00 60 1012.6
20260904213044 23 267 0.0 3.2 0.00 0.00 0.00 58 1012.4
20260904211550 24 267 0.0 4.8 0.00 0.00 0.00 57 1012.2
20260904210047 24 267 0.0 0.0 0.00 0.00 0.00 56 1012.2
20260904204542 25 267 0.0 0.0 0.00 0.00 0.00 55 1012.0